Powrót do katalogu

SL-16 DEB

AktywnyLEO
NORAD 28042·DEBRIS·🇷🇺 Russia

Wystrzelony Dec 25, 1992 z Baikonur Cosmodrome

Loading…

Następne Przeloty (najbliższe 24 godziny)

TLE

ŚwieżeSource: Space-Track

Epoka: Sep 13, 2026, 10:05 UTC

1 28042U 92093JP  26256.42015225  .00000521  00000-0  29149-3 0  9997
2 28042  70.8738 160.9700 0071991 335.9617 139.9802 14.14166689525320

Śledź SL-16 DEB w czasie rzeczywistym z AllMySat

Download on the App Store